This is the latest recevied weather packets stored in our database for station/object SP3VBV-2. If no packets are shown the sender has not sent any weather packets the latest 10 day(s).
| Time | Temp. | Humidity | Pressure | Rain* | Wind** | Luminosity | Snow |
|---|---|---|---|---|---|---|---|
| 1777636914 | 18.33° C | 42% | 1025.5 hPa | - | - | - | - |
| 1777636314 | 18.33° C | 45% | 1025.4 hPa | - | - | - | - |
| 1777635744 | 18.33° C | 44% | 1025.5 hPa | - | - | - | - |
| 1777635706 | 18.33° C | 46% | 1025.6 hPa | - | - | - | - |
| 1777634513 | 18.33° C | 46% | 1025.5 hPa | - | - | - | - |
| 1777633915 | 17.78° C | 45% | 1025.5 hPa | - | - | - | - |
| 1777633315 | 17.78° C | 46% | 1025.6 hPa | - | - | - | - |
| 1777632713 | 17.78° C | 45% | 1025.7 hPa | - | - | - | - |
| 1777632116 | 17.78° C | 47% | 1025.7 hPa | - | - | - | - |
| 1777631514 | 17.22° C | 45% | 1025.7 hPa | - | - | - | - |
| 1777631506 | 17.78° C | 47% | 1025.7 hPa | - | - | - | - |
| 1777630313 | 17.22° C | 44% | 1025.9 hPa | - | - | - | - |
| 1777629113 | 16.67° C | 45% | 1026 hPa | - | - | - | - |
| 1777628513 | 16.67° C | 46% | 1026 hPa | - | - | - | - |
| 1777628428 | 16.67° C | 46% | 1026 hPa | - | - | - | - |
| 1777627905 | 16.11° C | 46% | 1026.1 hPa | - | - | - | - |
| 1777627305 | 15.56° C | 48% | 1026.2 hPa | - | - | - | - |
| 1777626705 | 15.56° C | 47% | 1026.3 hPa | - | - | - | - |
| 1777626105 | 15° C | 47% | 1026.3 hPa | - | - | - | - |
| 1777625505 | 15° C | 45% | 1026.3 hPa | - | - | - | - |
| 1777624905 | 14.44° C | 49% | 1026.4 hPa | - | - | - | - |
| 1777624305 | 14.44° C | 48% | 1026.5 hPa | - | - | - | - |
| 1777623705 | 14.44° C | 51% | 1026.6 hPa | - | - | - | - |
| 1777623105 | 13.33° C | 50% | 1026.7 hPa | - | - | - | - |
| 1777622505 | 13.33° C | 51% | 1026.7 hPa | - | - | - | - |
* Rain since midnight (hover to see other rain measurements)
** Current wind speed in m/s (hover to see current wind gust speed)